[[{"header":{"parameterUnit":"m.s-1","parameterCategory":1,"la1":30.2991,"la2":30.254,"lo1":-89.0895,"lo2":-89.0444,"dy":0.0017,"dx":0.0017,"nx":28,"ny":28,"refTime":"2025-11-12T09:00:00:Z","depth":0,"parameterNumber":2,"parameterNumberName":"U-component_of_WINDS"},"data":[0,0,0,0,0,0,0,0,0,0,0,0,0,0,0,0,0,0,0,0,0,0,0,0,0,0,0,0,0,0,0,0,0,0,0,0,0,0,0,0,0,0,0,0,0,0,0,0,0,0,0,0,0,0,0,0,0,0,0.2982,0.2981,0,0.2908,0.2907,0.2906,0.2841,0.284,0.284,0.2839,0.2761,0.276,0.2759,0,0,0,0,0,0,0,0,0,0,0,0,0,0.3062,0.3061,0.2982,0.2981,0.298,0.2908,0.2907,0.2906,0.2841,0.284,0.2839,0.2839,0.2762,0.276,0.2759,0,0,0,0,0,0,0,0,0,0,0,0,0,0.3012,0.3061,0.2982,0.2939,0.2934,0.2908,0.2907,0.2906,0.2842,0.284,0.2839,0.2838,0.2762,0.276,0.2758,0.2768,0,0,0.2752,0.2751,0,0,0,0,0,0,0,0,0.3015,0.3009,0.2946,0.2942,0.2937,0.2883,0.2907,0.286,0.2842,0.2877,0.2839,0.2838,0.2803,0.2797,0.2786,0.2765,0.2762,0.2752,0.2751,0.275,0.2749,0,0,0,0,0,0,0,0.3018,0.3012,0.2952,0.2945,0.2939,0.2922,0.2914,0.2898,0.2847,0.2874,0.2869,0.2861,0.28,0.2788,0.2783,0.276,0.2752,0.275,0.2749,0.2748,0.2743,0.2744,0,0,0,0,0,0,0.3029,0.3015,0.2955,0.295,0.2974,0.2922,0.2912,0.2901,0.2847,0.2837,0.2862,0.2858,0.2792,0.2786,0.278,0.2789,0.275,0.2748,0.2747,0.2742,0.2743,0.2744,0,0,0,0,0,0,0.3031,0.3024,0.2958,0.2981,0.2972,0.2921,0.291,0.29,0.2888,0.2838,0.2828,0.286,0.2791,0.2783,0.2772,0.2785,0.2747,0.2745,0.2741,0.2742,0.2744,0.2806,0,0,0,0,0,0,0.3034,0.3025,0.303,0.2982,0.2971,0.2952,0.291,0.29,0.2885,0.288,0.2833,0.2824,0.2789,0.2775,0.277,0.2782,0.2744,0.2739,0.2741,0.2743,0.2802,0.2809,0.2815,0,0,0,0,0,0.3037,0.305,0.303,0.3023,0.2975,0.2953,0.2946,0.2906,0.2887,0.289,0.2857,0.2826,0.2784,0.2775,0.2768,0.2779,0.2738,0.2741,0.2743,0.2799,0.2808,0.2815,0,0,0,0,0,0,0.3099,0.3043,0.3021,0.3018,0.2991,0.2942,0.2945,0.2916,0.2893,0.2889,0.2839,0.2829,0.2823,0.28,0.279,0.2786,0.2757,0.2758,0.2802,0.2809,0.2816,0.2822,0.2742,0,0,0,0,0,0.3113,0.3101,0.3051,0.3054,0.3041,0.2996,0.2984,0.2956,0.2925,0.2913,0.2879,0.285,0.283,0.2818,0.2797,0.2798,0.2786,0.2802,0.2808,0.2814,0.2816,0.2814,0.2821,0.2752,0.2752,0.2752,0,0,0.3141,0.3109,0.3104,0.3066,0.3041,0.3029,0.2986,0.2975,0.2965,0.2911,0.2899,0.2873,0.2836,0.2831,0.2827,0.2811,0.2832,0.2817,0.2822,0.2821,0.2817,0.2824,0.283,0.2754,0.2754,0.2754,0,0,0.3186,0.316,0.316,0.3136,0.3099,0.3069,0.3069,0.3023,0.3004,0.2991,0.295,0.2937,0.2904,0.2879,0.2863,0.2897,0.2867,0.2891,0.2926,0.2924,0.293,0.2934,0.2947,0.2952,0.2893,0.2893,0.2893,0,0.3226,0.3206,0.3163,0.3154,0.3139,0.3089,0.3088,0.3066,0.3025,0.3014,0.2997,0.2954,0.2926,0.2915,0.2923,0.2911,0.2909,0.2897,0.2933,0.2937,0.294,0.2952,0.2956,0.2897,0.2896,0.2896,0.2896,0,0.3257,0.3243,0.3247,0.3209,0.3193,0.3188,0.3143,0.3132,0.3105,0.3076,0.3062,0.3026,0.2997,0.2992,0.2965,0.2976,0.2967,0.2942,0.2912,0.2951,0.2961,0.2965,0.2901,0.29,0.2899,0.2898,0,0,0.3341,0.3278,0.328,0.3262,0.3217,0.3206,0.3198,0.317,0.3161,0.3133,0.3125,0.3098,0.3074,0.3055,0.3024,0.3023,0.3052,0.2997,0.2995,0.3009,0.3062,0.3083,0.3089,0.3031,0.3032,0.3032,0.3066,0,0.3379,0.3364,0.3324,0.332,0.3307,0.3259,0.3252,0.3223,0.3195,0.3179,0.3147,0.3129,0.3098,0.3087,0.3083,0.305,0.3062,0.3046,0.3023,0.3023,0.3035,0.3094,0.3115,0.3148,0.3069,0.307,0.307,0,0.3423,0.3399,0.3394,0.3349,0.3342,0.3337,0.3307,0.3293,0.3258,0.3238,0.3216,0.3182,0.3169,0.3141,0.3123,0.3113,0.31,0.3082,0.3083,0.308,0.305,0.3093,0.3158,0.3163,0.3076,0.3075,0.3075,0,0.3486,0.3452,0.3444,0.343,0.3378,0.3375,0.3352,0.3317,0.3302,0.3276,0.3266,0.3238,0.3223,0.3202,0.3161,0.3144,0.3147,0.3115,0.3129,0.3131,0.3134,0.3134,0.3198,0.3124,0.3124,0.3124,0.3124,0,0.3533,0.3533,0.3472,0.3468,0.3465,0.3418,0.3416,0.3389,0.3358,0.3346,0.3302,0.3292,0.3238,0.3221,0.3188,0.3178,0.3171,0.3154,0.3145,0.3159,0.3161,0.3151,0.3148,0.3125,0.3125,0.3125,0.3124,0,0.3604,0.3563,0.3552,0.3503,0.3491,0.3491,0.3448,0.3442,0.341,0.3396,0.339,0.3341,0.3319,0.3275,0.3241,0.3218,0.3216,0.32,0.3228,0.3223,0.324,0.324,0.3301,0.3306,0.3228,0.3229,0.323,0,0.3638,0.3636,0.3587,0.3577,0.3557,0.3541,0.3525,0.3479,0.3465,0.3425,0.3423,0.3397,0.3375,0.3341,0.3302,0.3275,0.3258,0.3282,0.3254,0.3267,0.326,0.3261,0.326,0.3288,0.329,0.329,0.3291,0,0.3703,0.3683,0.3663,0.3637,0.362,0.3597,0.3571,0.3564,0.3511,0.3497,0.3475,0.3457,0.3422,0.3397,0.3364,0.3339,0.3307,0.33,0.3302,0.3316,0.3333,0.3324,0.3246,0.3299,0.3298,0.3298,0.3297,0.3297,0.3757,0.3753,0.3718,0.3697,0.3673,0.3649,0.3641,0.3608,0.3589,0.3557,0.353,0.351,0.3473,0.3426,0.3403,0.3386,0.337,0.3373,0.3374,0.3375,0.3381,0.3334,0.338,0.3379,0.3379,0.3379,0.3378,0,0.382,0.3795,0.3776,0.3742,0.3725,0.3696,0.3665,0.3653,0.3636,0.3606,0.3584,0.3558,0.3533,0.3491,0.3462,0.3456,0.344,0.345,0.3451,0.3446,0.3397,0.3398,0.3464,0.3464,0.3464,0.3464,0.3464,0.3464,0.3851,0.3843,0.3818,0.3797,0.3771,0.3752,0.3737,0.3715,0.369,0.3663,0.3642,0.3615,0.358,0.3548,0.3523,0.3511,0.3503,0.3519,0.3502,0.3457,0.3449,0.3442,0.3443,0.3517,0.3517,0.3552,0.3553,0.3553]},{"header":{"parameterUnit":"m.s-1","parameterCategory":1,"la1":30.2991,"la2":30.254,"lo1":-89.0895,"lo2":-89.0444,"dy":0.0017,"dx":0.0017,"nx":28,"ny":28,"refTime":"2025-11-12T09:00:00:Z","depth":0,"parameterNumber":3,"parameterNumberName":"V-component_of_WINDS"},"data":[0,0,0,0,0,0,0,0,0,0,0,0,0,0,0,0,0,0,0,0,0,0,0,0,0,0,0,0,0,0,0,0,0,0,0,0,0,0,0,0,0,0,0,0,0,0,0,0,0,0,0,0,0,0,0,0,0,0,-0.4568,-0.4569,0,-0.4603,-0.4603,-0.4604,-0.4589,-0.4588,-0.4587,-0.4587,-0.4622,-0.4624,-0.4625,0,0,0,0,0,0,0,0,0,0,0,0,0,-0.4491,-0.4492,-0.4568,-0.4569,-0.4569,-0.4603,-0.4603,-0.4604,-0.4589,-0.4588,-0.4587,-0.4586,-0.4621,-0.4623,-0.4625,0,0,0,0,0,0,0,0,0,0,0,0,0,-0.4525,-0.4493,-0.4568,-0.4566,-0.4566,-0.4603,-0.4603,-0.4604,-0.4589,-0.4588,-0.4587,-0.4586,-0.4621,-0.4623,-0.4626,-0.4667,0,0,-0.4634,-0.4635,0,0,0,0,0,0,0,0,-0.4523,-0.4528,-0.4566,-0.4566,-0.4566,-0.459,-0.4589,-0.4625,-0.459,-0.4581,-0.4587,-0.4585,-0.4612,-0.4616,-0.4625,-0.4668,-0.467,-0.4634,-0.4635,-0.4636,-0.4637,0,0,0,0,0,0,0,-0.4521,-0.4526,-0.4582,-0.4567,-0.4567,-0.4564,-0.4567,-0.4596,-0.4603,-0.4581,-0.458,-0.4585,-0.4612,-0.4622,-0.4626,-0.467,-0.4634,-0.4636,-0.4638,-0.4639,-0.4751,-0.4752,0,0,0,0,0,0,-0.4518,-0.4524,-0.4581,-0.4583,-0.4541,-0.4566,-0.457,-0.4584,-0.4603,-0.4604,-0.4586,-0.4584,-0.4619,-0.4623,-0.4627,-0.4677,-0.4636,-0.4639,-0.464,-0.4749,-0.4751,-0.4753,0,0,0,0,0,0,-0.4517,-0.4523,-0.458,-0.4553,-0.456,-0.4569,-0.4585,-0.4585,-0.4595,-0.4606,-0.4607,-0.4595,-0.4618,-0.4623,-0.4657,-0.4678,-0.464,-0.4642,-0.4748,-0.475,-0.4752,-0.4777,0,0,0,0,0,0,-0.4514,-0.4523,-0.4538,-0.4554,-0.4562,-0.4609,-0.4586,-0.4587,-0.46,-0.4598,-0.4615,-0.4616,-0.4617,-0.4654,-0.466,-0.4681,-0.4644,-0.4746,-0.4749,-0.4751,-0.4775,-0.478,-0.4785,0,0,0,0,0,-0.4512,-0.4543,-0.4539,-0.4546,-0.4581,-0.461,-0.4615,-0.4615,-0.4602,-0.4617,-0.4625,-0.4616,-0.4675,-0.4657,-0.4664,-0.4686,-0.4745,-0.4748,-0.4751,-0.4773,-0.4779,-0.4785,0,0,0,0,0,0,-0.4529,-0.4545,-0.4541,-0.4578,-0.4593,-0.4608,-0.4628,-0.4622,-0.4641,-0.4638,-0.4638,-0.4642,-0.4678,-0.4685,-0.4665,-0.4728,-0.4708,-0.4712,-0.4722,-0.4728,-0.4733,-0.4731,-0.4647,0,0,0,0,0,-0.4538,-0.456,-0.4573,-0.4605,-0.4613,-0.4619,-0.4632,-0.4631,-0.4646,-0.4652,-0.4662,-0.4677,-0.47,-0.4714,-0.4735,-0.4776,-0.478,-0.4795,-0.48,-0.4804,-0.4808,-0.4832,-0.4839,-0.4763,-0.4763,-0.4763,0,0,-0.4555,-0.4567,-0.4581,-0.4609,-0.462,-0.4644,-0.4624,-0.465,-0.4668,-0.4656,-0.469,-0.4697,-0.4714,-0.4753,-0.477,-0.476,-0.483,-0.4808,-0.4811,-0.4813,-0.4836,-0.4843,-0.485,-0.4766,-0.4765,-0.4765,0,0,-0.4599,-0.4609,-0.4638,-0.465,-0.4668,-0.4672,-0.4679,-0.4695,-0.47,-0.4734,-0.4726,-0.4747,-0.4785,-0.4798,-0.481,-0.4861,-0.4854,-0.4867,-0.4894,-0.4917,-0.4923,-0.4929,-0.4948,-0.4955,-0.4872,-0.4872,-0.4872,0,-0.4618,-0.4653,-0.4653,-0.468,-0.4694,-0.4685,-0.4715,-0.4726,-0.475,-0.476,-0.4748,-0.4797,-0.4808,-0.485,-0.4862,-0.4871,-0.488,-0.4866,-0.4922,-0.4928,-0.4933,-0.4951,-0.4958,-0.4873,-0.4873,-0.4873,-0.4873,0,-0.4677,-0.4702,-0.4723,-0.4747,-0.4762,-0.479,-0.4795,-0.4811,-0.4809,-0.4815,-0.485,-0.4863,-0.4887,-0.4897,-0.4895,-0.4939,-0.4933,-0.4922,-0.4902,-0.4942,-0.4959,-0.4966,-0.4876,-0.4875,-0.4875,-0.4874,0,0,-0.4732,-0.4757,-0.4765,-0.4776,-0.4796,-0.4815,-0.4844,-0.4868,-0.4882,-0.4899,-0.4923,-0.4956,-0.4947,-0.496,-0.496,-0.498,-0.5022,-0.4967,-0.4968,-0.4978,-0.5073,-0.5082,-0.509,-0.5017,-0.5018,-0.502,-0.5072,0,-0.4778,-0.4828,-0.483,-0.4875,-0.4899,-0.4892,-0.4917,-0.4932,-0.4938,-0.496,-0.4967,-0.4991,-0.4976,-0.4984,-0.5004,-0.5012,-0.5041,-0.5008,-0.5041,-0.5042,-0.5037,-0.5099,-0.5108,-0.5156,-0.5079,-0.508,-0.5081,0,-0.4838,-0.4858,-0.4907,-0.4925,-0.4935,-0.4957,-0.498,-0.5,-0.5018,-0.5021,-0.5037,-0.5034,-0.5064,-0.5043,-0.5085,-0.5063,-0.5076,-0.5082,-0.5084,-0.5088,-0.5064,-0.5105,-0.5172,-0.5179,-0.5091,-0.509,-0.5089,0,-0.4875,-0.4914,-0.4948,-0.4958,-0.498,-0.4996,-0.5006,-0.5022,-0.5037,-0.5058,-0.5068,-0.5091,-0.5104,-0.5122,-0.5126,-0.511,-0.5169,-0.5147,-0.5173,-0.5173,-0.5186,-0.5185,-0.5257,-0.5193,-0.5193,-0.5193,-0.5193,0,-0.4927,-0.4957,-0.4966,-0.4987,-0.5021,-0.5023,-0.5056,-0.5065,-0.508,-0.5103,-0.5099,-0.5121,-0.5124,-0.5147,-0.5151,-0.5186,-0.5191,-0.5196,-0.5196,-0.5197,-0.5196,-0.5206,-0.5203,-0.5195,-0.5195,-0.5194,-0.5194,0,-0.4974,-0.4981,-0.5018,-0.5036,-0.5041,-0.5066,-0.5081,-0.5102,-0.5108,-0.5138,-0.5145,-0.5155,-0.5183,-0.5189,-0.522,-0.5223,-0.5265,-0.5262,-0.5259,-0.5259,-0.5285,-0.5283,-0.5366,-0.5378,-0.5306,-0.5306,-0.5307,0,-0.5007,-0.503,-0.5051,-0.5067,-0.5077,-0.5102,-0.5118,-0.5121,-0.5138,-0.5161,-0.5179,-0.5206,-0.5228,-0.5272,-0.5282,-0.5307,-0.5305,-0.5333,-0.5309,-0.5309,-0.5307,-0.5306,-0.5309,-0.5337,-0.5338,-0.5339,-0.5339,0,-0.5065,-0.5068,-0.509,-0.5115,-0.5134,-0.5153,-0.5172,-0.5185,-0.5191,-0.521,-0.5238,-0.5255,-0.5289,-0.5316,-0.5341,-0.5352,-0.5347,-0.5347,-0.5354,-0.5355,-0.5353,-0.5356,-0.5273,-0.5345,-0.5344,-0.5344,-0.5344,-0.5343,-0.5107,-0.5128,-0.5146,-0.5172,-0.5187,-0.5205,-0.5226,-0.5235,-0.5259,-0.5287,-0.5288,-0.5319,-0.5338,-0.5371,-0.5384,-0.5408,-0.54,-0.541,-0.5413,-0.5416,-0.5419,-0.5349,-0.5413,-0.5413,-0.5413,-0.5412,-0.5412,0,-0.5165,-0.5178,-0.5202,-0.5228,-0.5249,-0.5243,-0.5264,-0.5282,-0.531,-0.5328,-0.535,-0.5383,-0.541,-0.5423,-0.545,-0.5467,-0.5466,-0.5474,-0.5473,-0.5476,-0.5425,-0.5416,-0.5475,-0.5475,-0.5475,-0.5475,-0.5475,-0.5475,-0.5199,-0.5234,-0.524,-0.5283,-0.5295,-0.5326,-0.5338,-0.5355,-0.537,-0.5408,-0.543,-0.5439,-0.5455,-0.5484,-0.5509,-0.5512,-0.5522,-0.5532,-0.5535,-0.5486,-0.548,-0.5474,-0.5466,-0.5534,-0.5534,-0.5584,-0.5585,-0.5585]}]]